Regional Weather Roundup
Issued by NWS

Home | Current Version | Previous Version | Text Only | Print | Product List | Glossary On
Versions: 1 2 3 4 5 6 7 8 9 10 11 12 13 14 15 16 17 18 19 20 21 22 23 24 25 26 27 28 29 30 31 32 33 34 35 36 37 38 39 40 41 42 43 44 45 46 47 48 49 50
229
ASUS43 KOAX 110410
RWRNE

WEATHER ROUNDUP FOR NEBRASKA
NATIONAL WEATHER SERVICE OMAHA NE
1000 PM CST SAT DEC 10 2016

NOTES: SATELLITE DATA IS BEING USED TO AUGMENT CLOUD COVER ABOVE
       12000 FEET.
       "FAIR" INDICATES FEW OR NO CLOUDS BELOW 12,000 FEET WITH NO
       SIGNIFICANT WEATHER AND/OR OBSTRUCTIONS TO VISIBILITY.

  * THESE STATIONS DO NOT REPORT WEATHER SUCH AS RAIN...SNOW OR FOG.

NEZ001>004-019>022-054>056-110500-
NEBRASKA PANHANDLE

CITY           SKY/WX    TMP DP  RH WIND       PRES   REMARKS
SCOTTSBLUFF    CLOUDY    26  21  81 NE3       29.63F
ALLIANCE       CLOUDY    25  22  88 S9        29.61S WCI  15
CHADRON        CLOUDY     5   1  83 N3        29.72R
KIMBALL        CLOUDY    39  33  78 W12       29.66S WCI  32
SIDNEY         CLOUDY    33  26  75 SW3       29.65F
$$

NEZ057>060-069>072-079>082-110500-
SOUTHWEST NEBRASKA

CITY           SKY/WX    TMP DP  RH WIND       PRES   REMARKS
NORTH PLATTE   CLOUDY    30  23  75 S7        29.71F WCI  23
IMPERIAL       CLOUDY    28  24  85 CALM      29.70F
LEXINGTON      CLOUDY    31  24  76 S5        29.75F WCI  26
MCCOOK         CLOUDY    27  23  85 SE5       29.72F WCI  22
OGALLALA       CLOUDY    31  26  84 CALM      29.68F
$$

NEZ005>010-023>029-035>040-094-110500-
NORTH CENTRAL NEBRASKA

CITY           SKY/WX    TMP DP  RH WIND       PRES   REMARKS
VALENTINE      CLOUDY    13  10  88 NE8       29.67F WCI   2
AINSWORTH      CLOUDY    28  24  86 S9        29.67F WCI  19
BROKEN BOW     CLOUDY    31  24  75 S12       29.73F WCI  22
O`NEILL        CLOUDY    28  22  76 SE9       29.77F WCI  19
ORD            CLOUDY    28  19  69 SE8       29.76F WCI  20
THEDFORD       CLOUDY    30  25  81 S9        29.67F WCI  21
$$

NEZ041-046>049-061>064-073>077-083>087-110500-
SOUTH CENTRAL NEBRASKA

CITY           SKY/WX    TMP DP  RH WIND       PRES   REMARKS
GRAND ISLAND   CLOUDY    31  23  72 SE8       29.82S WCI  23
AURORA         CLOUDY    31  21  67 SE10      29.82S WCI  22
HASTINGS       CLOUDY    31  22  69 SE10      29.79F WCI  22
HEBRON         CLOUDY    31  22  68 SE8       29.85F WCI  24
HOLDREGE       CLOUDY    30  24  77 S10       29.75F WCI  21
KEARNEY *      CLOUDY    28  19  69 SE3       29.78F
YORK           PTCLDY    32  23  69 SE10      29.84F WCI  24
$$

NEZ011>018-030>034-042>045-110500-
NORTHEAST NEBRASKA

CITY           SKY/WX    TMP DP  RH WIND       PRES   REMARKS
NORFOLK        CLOUDY    26  18  71 SE14      29.84F WCI  14
ALBION         CLOUDY    28  20  73 SE9       29.81F WCI  19
BLAIR          CLOUDY    31  22  69 SE13      29.90F WCI  21
FREMONT        CLOUDY    30  22  70 SE10      29.90F WCI  21
TEKAMAH        CLOUDY    28  21  75 SE12      29.93F WCI  18
WAYNE          CLOUDY    26  21  80 SE12      29.88F WCI  16
$$

NEZ050>053-065>068-078-088>093-110500-
SOUTHEAST NEBRASKA

CITY           SKY/WX    TMP DP  RH WIND       PRES   REMARKS
LINCOLN        CLOUDY    33  22  63 SE10      29.90F WCI  25
OMAHA EPPLEY   CLOUDY    31  20  63 SE15      29.94F WCI  20
BEATRICE       CLOUDY    32  22  67 SE10      29.88F WCI  24
FALLS CITY     CLOUDY    32  22  66 SE9       29.96F WCI  24
NEBRASKA CITY  CLOUDY    32  19  59 SE8       29.94S WCI  25
PLATTSMOUTH    CLOUDY    32  20  61 SE10      29.93F WCI  23
$$

NEZ044-045-051>053-067-110500-
OMAHA AREA

CITY           SKY/WX    TMP DP  RH WIND       PRES   REMARKS
OMAHA EPPLEY   CLOUDY    31  20  63 SE15      29.94F WCI  20
BLAIR          CLOUDY    31  22  69 SE13      29.90F WCI  21
FREMONT        CLOUDY    30  22  70 SE10      29.90F WCI  21
MILLARD        CLOUDY    33  22  65 SE12      29.93F WCI  24
OFFUTT AFB     CLOUDY    31  22  70 SE15      29.93F WCI  20
PLATTSMOUTH    CLOUDY    32  20  61 SE10      29.93F WCI  23
WAHOO          FAIR      31  21  66 SE14      29.90F WCI  21
$$




USA.gov is the U.S. government's official web portal to all federal, state and local government web resources and services.